Weather History for KDBQ - July, 2013

Change the Weather History Date:

Monday, July 8, 2013

  Actual Average Record
Temperature  
Mean Temperature 79 °F 72 °F  
Max Temperature 88 °F 82 °F 101 °F (1936)
Min Temperature 69 °F 62 °F 47 °F (2004)
Degree Days  
Heating Degree Days 0 0  
Month to date heating degree days 2 0  
Since 1 June heating degree days 41 40  
Since 1 July heating degree days 2 0  
Cooling Degree Days 14 7  
Month to date cooling degree days 50 56  
Year to date cooling degree days 204 232  
Since 1 June cooling degree days 159 195  
Growing Degree Days 28 (Base 50)    
Moisture  
Dew Point 72 °F    
Average Humidity 82    
Maximum Humidity 100    
Minimum Humidity 63    
Precipitation  
Precipitation 0.83 in 0.15 in 4.36 in (1951)
Month to date precipitation 0.83 1.10  
Year to date precipitation 26.04 18.37  
Snow  
Snow 0.00 in 0.00 in - ()
Month to date snowfall 0.0 0.0  
Since 1 June snowfall 0.0 0.0  
Since 1 July snowfall 0.0 0.0  
Snow Depth 0.00 in    
Sea Level Pressure  
Sea Level Pressure 29.95 in    
Wind  
Wind Speed 8 mph (SW)    
Max Wind Speed 21 mph    
Max Gust Speed 26 mph    
Visibility 7 miles    
Events Rain , Thunderstorm    
T = Trace of Precipitation, MM = Missing Value Source: NWS Daily Summary

Daily Weather History Graph

Daily Weather History Graph

Search for Another Location

Airport or City:

Trip Planner

Search our weather history database for the weather conditions in past years. The results will help you decide how hot, cold, wet, or windy it might be!

Date:

Astronomy

Jul. 08, 2013 Rise Set
Actual Time 5:34 AM CDT 8:41 PM CDT
Civil Twilight 4:59 AM CDT 9:15 PM CDT
Nautical Twilight 4:16 AM CDT 9:59 PM CDT
Astronomical Twilight 3:23 AM CDT 10:51 PM CDT
Moon 6:05 AM CDT (7/8) 8:41 PM CDT (7/8)
Length of Visible Light 16h 15m
Length of Day
15h 07m
New Moon, 0% of the Moon is Illuminated
Jul 8
New Moon
Jul 15
First Quarter
Jul 22
Full
Jul 29
Last Quarter
Aug 6
New

Hourly Weather History & Observations

Time (CDT) Temp. Heat Index Dew Point Humidity Pressure Visibility Wind Dir Wind Speed Gust Speed Precip Events Conditions
12:53 AM 73.9 °F - 70.0 °F 87% 29.94 in 9.0 mi South 6.9 mph - N/A   Clear
1:51 AM 75.2 °F - 69.8 °F 83% 29.95 in 10.0 mi SSW 9.2 mph - N/A Thunderstorm Overcast
1:53 AM 75.0 °F - 69.1 °F 82% 29.93 in 10.0 mi SSW 9.2 mph - N/A Thunderstorm Overcast
2:33 AM 71.6 °F - 69.8 °F 94% 29.94 in 2.5 mi South 4.6 mph - 0.11 in Rain , Thunderstorm Light Thunderstorms and Rain
2:40 AM 71.6 °F - 69.8 °F 94% 29.95 in 9.0 mi Calm Calm - 0.11 in Thunderstorm Thunderstorm
2:53 AM 71.1 °F - 70.0 °F 96% 29.95 in 4.0 mi NW 10.4 mph - 0.12 in Rain , Thunderstorm Heavy Thunderstorms and Rain
3:07 AM 71.6 °F - 69.8 °F 94% 29.98 in 1.8 mi WNW 15.0 mph 26.5 mph 0.16 in Rain , Thunderstorm Heavy Thunderstorms and Rain
3:29 AM 69.8 °F - 69.8 °F 100% 30.00 in 2.0 mi NNW 12.7 mph - 0.53 in Rain , Thunderstorm Heavy Thunderstorms and Rain
3:45 AM 69.8 °F - 69.8 °F 100% 30.00 in 3.0 mi WNW 9.2 mph - 0.60 in Rain , Thunderstorm Rain
3:50 AM 69.8 °F - 69.8 °F 100% 29.98 in 1.8 mi West 5.8 mph - 0.65 in Rain , Thunderstorm Heavy Thunderstorms and Rain
3:53 AM 70.0 °F - 70.0 °F 100% 29.95 in 1.2 mi SW 3.5 mph - 0.67 in Rain , Thunderstorm Heavy Thunderstorms and Rain
4:03 AM 69.8 °F - 69.8 °F 100% 29.96 in 3.0 mi South 10.4 mph - 0.04 in Thunderstorm Unknown
4:29 AM 69.8 °F - 69.8 °F 100% 29.98 in 7.0 mi ESE 9.2 mph 21.9 mph 0.04 in Thunderstorm Overcast
4:36 AM 71.6 °F - 69.8 °F 94% 29.98 in 8.0 mi East 6.9 mph - 0.04 in   Overcast
4:53 AM 70.0 °F - 70.0 °F 100% 29.95 in 8.0 mi SE 5.8 mph - 0.04 in   Mostly Cloudy
5:53 AM 70.0 °F - 70.0 °F 100% 29.94 in 5.0 mi South 15.0 mph 21.9 mph N/A   Partly Cloudy
6:03 AM 71.6 °F - 69.8 °F 94% 29.95 in 6.0 mi South 15.0 mph 18.4 mph N/A   Scattered Clouds
6:53 AM 70.0 °F - 69.1 °F 97% 29.94 in 6.0 mi South 10.4 mph - N/A   Mostly Cloudy
7:53 AM 73.0 °F - 71.1 °F 93% 29.94 in 7.0 mi SSW 9.2 mph - N/A   Scattered Clouds
8:53 AM 75.0 °F - 71.1 °F 87% 29.95 in 8.0 mi SSW 13.8 mph - N/A   Clear
9:53 AM 78.1 °F - 71.1 °F 79% 29.95 in 10.0 mi SW 12.7 mph - N/A   Clear
10:53 AM 81.0 °F 85.8 °F 73.0 °F 77% 29.96 in 9.0 mi SW 11.5 mph - N/A   Clear
11:53 AM 82.9 °F 89.4 °F 73.9 °F 74% 29.95 in 9.0 mi SW 9.2 mph - N/A   Clear
12:53 PM 84.0 °F 91.2 °F 73.9 °F 72% 29.94 in 9.0 mi SW 6.9 mph - N/A   Clear
1:53 PM 84.9 °F 93.3 °F 75.0 °F 72% 29.94 in 8.0 mi SW 11.5 mph - N/A   Scattered Clouds
2:53 PM 87.1 °F 97.3 °F 75.9 °F 69% 29.94 in 9.0 mi SW 11.5 mph - N/A   Mostly Cloudy
3:53 PM 84.9 °F 93.3 °F 75.0 °F 72% 29.94 in 8.0 mi WSW 9.2 mph - N/A   Partly Cloudy
4:53 PM 87.1 °F 96.3 °F 75.0 °F 67% 29.94 in 8.0 mi WSW 8.1 mph - N/A   Partly Cloudy
5:53 PM 88.0 °F 95.6 °F 73.0 °F 61% 29.94 in 10.0 mi West 8.1 mph - N/A   Partly Cloudy
6:53 PM 84.9 °F 94.1 °F 75.9 °F 74% 29.94 in 8.0 mi SW 10.4 mph - N/A   Partly Cloudy
7:25 PM 82.4 °F 89.5 °F 75.2 °F 79% 29.97 in 8.0 mi SW 6.9 mph - N/A Thunderstorm Partly Cloudy
7:53 PM 81.0 °F 87.3 °F 75.9 °F 85% 29.97 in 7.0 mi West 4.6 mph - N/A   Partly Cloudy
8:53 PM 79.0 °F - 77.0 °F 94% 29.96 in 5.0 mi Calm Calm - N/A   Scattered Clouds
9:53 PM 78.1 °F - 77.0 °F 96% 29.97 in 6.0 mi Calm Calm - N/A   Partly Cloudy
10:53 PM 77.0 °F - 75.0 °F 94% 29.97 in 7.0 mi SSW 3.5 mph - N/A   Partly Cloudy
11:53 PM 75.0 °F - 73.9 °F 96% 29.98 in 7.0 mi WSW 3.5 mph - N/A   Clear